Fort Wainwright, AK (99703)

9:08 PM AKDT on September 23, 2017 (GMT -0800)
Ladd Army Air Field | | Change Station

Elev 453 ft 64.84 °N, 147.62 °W | Updated 1 hour ago

Clear
Clear
51 °F
Feels Like 51 °F
N
5
Wind Variable Wind from NE

Today
High -- | Low -- °F
--% Chance of Precip.
Yesterday
High -- | Low -- °F
Precip. -- in
Pressure 29.55 in
Visibility 9.0 miles
Clouds Clear
Dew Point 41 °F
Humidity 68%
Rainfall 0.00 in
Snow Depth Not available.
7:37 AM 7:45 PM
Waxing Crescent, 16% visible
METAR PAFB 240358Z AUTO 05004KT 9SM CLR 11/05 A2954 RMK AO2 SLP007 T01080052
Pressure 29.55 in
Visibility 9.0 miles
Clouds Clear
Dew Point 41 °F
Humidity 68%
Rainfall 0.00 in
Snow Depth Not available.
7:37 AM 7:45 PM
Waxing Crescent, 16% visible
METAR PAFB 240358Z AUTO 05004KT 9SM CLR 11/05 A2954 RMK AO2 SLP007 T01080052

Get Severe Weather Alerts

Thanks for signing up!

Be on the lookout for a verification email in your inbox.

You'll start receiving the daily forecast at 6 AM.

×

10-Day Weather Forecast

Almanac

Astronomy

Sep. 23, 2017 Rise Set
Actual Time
Civil Twilight
Nautical Twilight
Astronomical Twilight
Moon
Length of Visible Light
Length of Day
Tomorrow will be .
, % of the Moon is Illuminated

Today's Extremes

State Highs State Lows

Community

WunderPhotos

Category 6

Welcome to Category 6. This is the collective home for Weather Underground's featured writeups by Dr. Jeff Masters (right), Bob Henson (left), Chris Burt, and other regular contributors.

Nearby

Air Quality

  Air Quality AQ Index Pollutant
Not available.

Snow Depth

Station Depth Elevation

Earthquake Activity

City Distance Mag. Time & Date
Minimum magnitude displayed is 2.5.

Coastal Water Temperatures

Place Temperature

Stations

Nearby Weather Stations

Station Location Temp. Windchill Dew Point Humidity Wind Precip. Elev Updated Type
                   

Watches & Warnings

There are currently no watches in effect.